Regional Weather Roundup
Issued by NWS

Home | Current Version | Previous Version | Text Only | Print | Product List | Glossary On
Versions: 1 2 3 4 5 6 7 8 9 10 11 12 13 14 15 16 17 18 19 20 21 22 23 24 25 26 27
000
ASUS46 KPQR 191110
RWROR

OREGON REGIONAL WEATHER ROUNDUP
NATIONAL WEATHER SERVICE PORTLAND OR
300 AM PST SUN FEB 19 2017

NOTE: "FAIR" INDICATES FEW OR NO CLOUDS BELOW 12,000 FEET WITH
NO SIGNIFICANT WEATHER AND/OR OBSTRUCTIONS TO VISIBILITY.

ORZ001>013-191200-
NORTHWEST OREGON


CITY           SKY/WX    TMP DP  RH WIND       PRES   REMARKS
ASTORIA        LGT RAIN  40  37  89 E5        29.35F
NEWPORT        CLOUDY    41  39  93 S13       29.42F
PORTLAND       LGT RAIN  42  40  92 SE9       29.43F
VANCOUVER WA   LGT RAIN  42  41  96 SE8       29.42F
SCAPPOOSE      LGT RAIN  42  42 100 CALM      29.41F FOG
HILLSBORO      LGT RAIN  42  40  92 SE7       29.41S FOG
AURORA         RAIN      43  39  86 SW12G20   29.45R FOG
MCMINNVILLE    LGT RAIN  43  40  89 SW5       29.42S
SALEM          RAIN      43  38  82 SW14G24   29.45R
CORVALLIS        N/A     43  37  81 W13G21    29.48R
EUGENE         CLOUDY    44  39  82 S20G26    29.46R
$$

ORZ021-028-191200-
SOUTHWEST OREGON


CITY           SKY/WX    TMP DP  RH WIND       PRES   REMARKS
NORTH BEND     CLOUDY    45  43  93 S12       29.48R
BROOKINGS      CLOUDY    48  46  93 VRB6      29.56R
ROSEBURG       HVY RAIN  42  39  89 S10G22    29.50S FOG
SEXTON SUMMIT  HVY SNOW  31  30  96 SW16G23   29.43R VSB 1/4 WCI  20
MEDFORD        LGT RAIN  41  39  93 NE5       29.52R
$$

ORZ014>016-041-191200-
COLUMBIA GORGE


CITY           SKY/WX    TMP DP  RH WIND       PRES   REMARKS
TROUTDALE      LGT RAIN  42  39  89 E10       29.43F
HOOD RIVER     RAIN      36  34  93 CALM      29.48F VSB 1/2
THE DALLES     CLOUDY    34  34 100 CALM      29.49S FOG
$$

ORZ029>031-041-044-049-050-061>064-502-503-505>511-191200-
EASTERN OREGON


CITY           SKY/WX    TMP DP  RH WIND       PRES   REMARKS
REDMOND        PTCLDY    32  25  75 S5        29.42F WCI  27
BEND           PTCLDY    36  27  69 S9        29.43R WCI  29
PRINEVILLE     PTCLDY    32  27  80 CALM      29.44S
KLAMATH FALLS  MOCLDY    34  27  75 S15       29.48F WCI  24
LAKEVIEW       CLOUDY    34  28  80 S10       29.56S WCI  26
HERMISTON      LGT RAIN  35  35 100 W10       29.52R FOG     WCI  27
PENDLETON      CLOUDY    35  35 100 SW6       29.46R WCI  30
JOHN DAY       PTCLDY    39  31  73 CALM      29.49R
MEACHAM        CLOUDY    34  30  85 CALM      29.43S
LA GRANDE      CLOUDY    39  36  87 SW7       29.46S WCI  34
BAKER CITY     CLOUDY    35  33  92 SE8       29.47S WCI  29
BURNS          MOCLDY    31  30  96 CALM      29.51R
ROME             N/A     42  31  64 SW9       29.52R
ONTARIO        LGT RAIN  34  33  96 W8        29.56S WCI  27
$$




USA.gov is the U.S. government's official web portal to all federal, state and local government web resources and services.